Home   Weather   Neuwied   Past weeks

Flag for Germany Past Weather in Neuwied, Rhineland-Palatinate, Germany — Yesterday and Last 2 Weeks

Now
30 °F

Chilly.


Feels Like: 22 °F
Forecast: 17 / 31 °F
Wind: 9 mph from Northeast

Location: Buechel

Current Time: Jan 20, 2017 at 3:09:13 pm

Latest Report: Jan 20, 2017 at 2:20 pm


Visibility: 5 mi

Pressure: 30.42 "Hg

Humidity: 37%

Dew Point: 7 °F

Location of NeuwiedLocation

Past Weather in Neuwied — Graph

°F

Neuwied Temperature Yesterday

Maximum temperature yesterday: 27 °F (at 3:20 pm)
Minimum temperature yesterday: 16 °F (at 2:20 am)
Average temperature yesterday: 21 °F

High & Low Weather Summary for the Past Weeks

 TemperatureHumidityPressure
High39 °F (Jan 11, 6:20 pm)100% (Jan 7, 5:20 pm)30.66 "Hg (Jan 7, 5:20 pm)
Low14 °F (Jan 6, 10:20 pm)34% (Jan 20, 11:43 am)29.00 "Hg (Jan 13, 1:20 am)
Average27 °F88%30.15 "Hg
* Reported Jan 5 1:30 pm — Jan 20 1:20 pm, Neuwied, Weather by CustomWeather, © 2017

Note: Actual official high and low records may vary slightly from our data, if they occured in-between our weather recording intervals... More about our weather records

Advertising

Neuwied Weather History for the Previous 24 Hours

Scroll right to see more
 ConditionsComfort  
Time TempWeatherWind HumidityBarometerVisibility
1:20 pm
Fri, Jan 20
30 °FChilly.9 mph34%30.45 "Hg5 mi
12:20 pm28 °FPassing clouds.9 mph34%30.45 "HgN/A
11:43 am28 °FPassing clouds.9 mph34%30.45 "HgN/A
11:20 am27 °FPassing clouds.9 mph39%30.48 "HgN/A
10:20 am25 °FPassing clouds.7 mph39%30.48 "HgN/A
9:20 am23 °FCold.9 mph42%30.48 "HgN/A
8:20 am19 °FCold.10 mph49%30.45 "HgN/A
7:20 am19 °FCold.8 mph53%30.45 "HgN/A
6:20 am19 °FCold.10 mph53%30.45 "HgN/A
5:20 am19 °FCold.8 mph58%30.45 "Hg6 mi
4:20 am19 °FCold.10 mph63%30.45 "Hg5 mi
3:20 am21 °FCold.8 mph58%30.48 "Hg5 mi
2:20 am21 °FCold.8 mph58%30.48 "Hg6 mi
1:20 am21 °FCold.5 mph63%30.48 "Hg5 mi
12:20 am19 °FCold.10 mph63%30.48 "Hg5 mi
11:20 pm
Thu, Jan 19
23 °FCold.10 mph58%30.51 "Hg5 mi
10:20 pm21 °FCold.9 mph58%30.51 "Hg5 mi
9:20 pm23 °FCold.9 mph58%30.51 "Hg5 mi
8:20 pm25 °FCold.10 mph54%30.51 "Hg5 mi
7:20 pm23 °FCold.12 mph58%30.51 "Hg5 mi
6:20 pm25 °FCold.13 mph59%30.51 "Hg5 mi
6:00 pm23 °FPassing clouds.13 mph63%30.51 "HgN/A
5:20 pm25 °FPassing clouds.13 mph59%30.48 "HgN/A
4:20 pm25 °FPassing clouds.10 mph63%30.48 "HgN/A
3:20 pm27 °FPassing clouds.9 mph59%30.51 "HgN/A
Weather by CustomWeather, © 2017

See weather overviewHow to use our weather pages